CAPE
29 22 16 16 11 2 3 8 16 35 52 52 27 4 5 0 5 4 1 0 0 0 2 13 29 112 55 6 0 1 11 0 0 0 0 0 0 0 0 0 0 0 0 0 0
28 52 56 49 37 23 9 3 2 12 37 58 63 23 6 0 0 1 0 0 2 0 1 31 27 30 19 5 0 2 4 0 0 0 0 0 0 0 0 0 0 0 0 0 0
20 23 24 26 25 41 57 28 6 4 14 23 60 60 31 0 0 0 81 2 0 0 0 24 48 18 16 6 2 0 0 0 0 0 0 0 0 0 0 0 0 0 0 0 0
50 42 33 31 29 27 33 19 51 24 4 8 25 63 64 0 0 0 0 35 0 0 0 25 44 45 22 23 5 0 0 0 0 0 0 0 0 0 0 0 0 0 0 0 0
21 23 29 36 42 47 38 23 24 38 47 7 9 37 42 21 0 0 0 93 0 8 96 135 25 39 22 9 13 7 0 0 0 0 0 0 0 0 0 0 0 0 0 0 0
49 52 50 55 57 62 58 53 52 41 56 58 17 29 50 13 0 0 0 37 2 147 147 124 26 28 33 20 9 7 5 0 0 0 0 0 0 0 0 0 0 0 0 0 0
35 51 51 47 60 61 68 64 55 47 50 76 86 34 28 23 0 0 0 68 58 169 197 66 46 25 54 35 21 16 15 9 1 0 0 0 0 0 0 0 0 0 0 0 0
53 51 57 51 51 58 55 50 36 40 44 74 105 63 21 0 0 0 0 82 168 182 172 160 19 14 18 24 5 25 23 3 0 4 0 0 0 0 0 0 0 0 0 0 0
55 53 58 57 52 59 49 52 36 19 29 66 86 82 23 2 0 0 0 0 175 173 139 80 6 7 7 27 15 9 1 2 0 0 0 0 0 0 0 0 0 0 0 0 0
49 54 61 70 75 61 49 60 4 23 11 41 77 66 16 1 2 0 0 0 2 137 116 0 0 1 1 9 1 3 6 0 0 0 0 0 0 0 0 0 0 0 0 0 0
48 85 71 82 87 81 72 10 0 0 69 36 27 30 0 0 4 64 18 14 7 98 23 0 7 4 0 6 4 0 3 0 0 0 0 0 0 0 0 0 0 0 0 0 0
30 54 65 82 78 76 75 38 19 67 51 0 0 0 0 0 2 50 51 37 61 33 42 2 8 0 0 10 16 0 0 0 0 0 0 0 0 0 0 0 0 0 0 0 0
36 70 71 57 43 17 20 32 41 0 118 0 0 0 0 0 17 3 71 46 54 59 59 11 1 0 0 1 4 0 0 0 0 0 0 0 0 0 0 0 0 0 0 0 0
43 81 138 119 9 42 31 46 73 1 30 0 0 0 0 3 20 15 4 81 54 15 8 40 9 0 17 2 2 10 0 0 0 0 0 0 0 0 0 0 0 0 0 0 0
58 64 62 94 37 38 44 72 114 112 6 31 30 13 0 19 17 17 0 18 34 16 32 4 25 29 19 0 19 6 25 0 3 0 0 0 0 0 0 0 0 0 0 0 0
44 71 70 29 77 61 108 117 143 20 0 12 52 24 32 11 39 25 74 41 53 49 19 19 12 30 0 3 19 21 0 0 5 0 1 0 0 0 0 0 0 0 0 0 0
45 68 38 39 20 97 157 129 22 5 7 12 3 4 29 22 31 28 22 42 46 102 12 30 0 0 3 2 7 6 1 1 1 0 0 0 0 0 0 0 0 0 0 0 0
138 159 76 6 77 110 149 1 1 7 11 26 5 3 0 27 23 30 26 40 55 65 7 14 9 0 0 0 0 1 4 0 0 0 0 0 0 0 0 0 0 0 0 0 0
111 14 16 24 77 137 59 1 2 23 1 0 0 1 11 53 7 24 9 59 38 16 7 6 7 0 0 0 0 4 8 0 0 0 0 0 0 0 0 0 0 0 0 0 0
0 7 52 77 174 98 22 5 6 17 15 5 2 14 6 1 7 54 30 1 2 38 11 0 27 0 0 0 0 3 0 0 0 0 0 0 0 0 0 0 0 0 0 0 0
7 14 50 107 146 78 10 10 3 1 9 22 55 9 0 1 18 48 31 22 9 11 27 15 1 0 0 0 0 0 0 0 0 0 0 0 0 0 0 0 0 0 0 0 0
24 12 2 51 62 23 11 28 74 5 3 7 11 8 2 6 7 3 12 38 10 27 27 19 3 0 0 0 0 0 0 0 0 0 0 0 0 0 0 0 0 0 0 0 0
16 2 3 23 11 15 8 0 3 9 4 7 6 11 11 1 3 6 50 43 32 9 19 16 6 1 0 0 0 0 0 0 0 0 0 0 0 0 0 0 0 0 0 0 0
10 1 35 1 0 4 12 0 0 0 0 2 0 1 3 1 4 7 15 4 0 71 71 77 0 0 0 0 0 0 0 0 0 0 0 0 0 0 0 0 0 0 0 0 0
9 11 5 4 23 6 12 5 2 31 15 29 7 8 11 3 0 11 75 17 16 17 2 0 0 0 0 0 0 0 0 0 0 0 0 0 0 0 0 0 0 0 0 0 0
22 28 35 17 0 5 3 13 7 3 2 0 7 11 27 8 15 11 7 25 35 7 1 0 4 10 0 0 0 0 0 0 0 0 0 0 0 0 0 0 0 0 0 0 0
22 15 29 1 15 10 17 9 6 14 2 26 21 21 1 16 16 32 12 28 38 2 2 0 0 0 0 1 1 0 0 0 0 0 0 0 0 0 0 0 0 0 0 0 0
CIN
-0 -0 -0 -0 -0 -0 -0 -0 -0 -0 -0 -0 -0 -0 -0 -0 -0 -0 -0 -0 -0 -0 -6 -2 -50 -50 -65 -3 -0 -1 -1 -0 -0 -0 -0 -0 -0 -0 -0 -0 -0 -0 -0 -0 -0
-0 -0 -0 -0 -0 -0 -0 -0 -0 -0 -0 -0 -0 -0 -0 -0 -0 -0 -0 -0 -1 -0 -2 -15 -35 -40 -2 -1 -0 -0 -0 -0 -0 -0 -0 -0 -0 -0 -0 -0 -0 -0 -0 -0 -0
-0 -0 -0 -0 -0 -0 -0 -0 -0 -0 -0 -0 -0 -0 -0 -0 -0 -0 -64 -76 -0 -0 -0 -1 -3 -2 -0 -1 -0 -0 -0 -0 -0 -0 -0 -0 -0 -0 -0 -0 -0 -0 -0 -0 -0
-0 -0 -0 -0 -0 -0 -0 -0 -0 -0 -0 -0 -0 -0 -0 -1 -0 -0 -0 -70 -9 -0 -0 -2 -2 -0 -1 -0 -1 -0 -0 -0 -0 -0 -0 -0 -0 -0 -0 -0 -0 -0 -0 -0 -0
-0 -0 -0 -0 -0 -0 -0 -0 -0 -0 -0 -0 -0 -0 -0 -0 -0 -0 -0 -29 -0 -72 -0 -0 -2 -1 -0 -0 -0 -2 -0 -0 -0 -0 -0 -0 -0 -0 -0 -0 -0 -0 -0 -0 -0
-0 -0 -0 -0 -0 -0 -0 -0 -0 -0 -0 -0 -0 -0 -0 -2 -0 -0 -0 -12 -27 -8 -2 -8 -11 -2 -5 -2 -3 -2 -3 -0 -0 -0 -0 -0 -0 -0 -0 -0 -0 -0 -0 -0 -0
-0 -0 -0 -0 -0 -0 -0 -0 -0 -0 -0 -0 -0 -0 -0 -0 -0 -0 -0 -2 -19 -2 -0 -13 -15 -8 -2 -5 -6 -4 -3 -1 -9 -0 -0 -0 -0 -0 -0 -0 -0 -0 -0 -0 -0
-0 -0 -0 -0 -0 -0 -0 -0 -0 -0 -1 -0 -0 -0 -0 -0 -0 -0 -0 -1 -2 -2 -2 -20 -32 -30 -11 -11 -5 -2 -4 -5 -0 -2 -0 -0 -0 -0 -0 -0 -0 -0 -0 -0 -0
-0 -0 -0 -0 -0 -0 -0 -0 -0 -2 -11 -2 -0 -0 -0 -1 -0 -0 -0 -0 -0 -3 -10 -8 -26 -13 -23 -23 -9 -1 -6 -1 -0 -5 -0 -0 -0 -0 -0 -0 -0 -0 -0 -0 -0
-0 -0 -0 -0 -0 -0 -0 -0 -6 -38 -31 -1 -0 -0 -3 -0 -0 -0 -0 -0 -0 -0 -7 -0 -0 -15 -6 -7 -0 -1 -2 -0 -0 -0 -0 -0 -0 -0 -0 -0 -0 -0 -0 -0 -0
-0 -0 -0 -0 -0 -0 -0 -0 -0 -0 -1 -2 -2 -0 -0 -0 -3 -0 -1 -1 -0 -0 -1 -0 -0 -0 -0 -6 -13 -5 -3 -0 -0 -0 -0 -0 -0 -0 -0 -0 -0 -0 -0 -0 -0
-0 -0 -0 -0 -0 -0 -0 -0 -15 -1 -0 -0 -0 -0 -0 -4 -0 -1 -6 -0 -1 -0 -2 -4 -0 -0 -0 -4 -4 -0 -1 -0 -0 -0 -0 -0 -0 -0 -0 -0 -0 -0 -0 -0 -0
-0 -0 -0 -0 -0 -6 -0 -0 -10 -9 -0 -0 -0 -0 -0 -0 -30 -1 -4 -0 -0 -0 -1 -1 -1 -0 -0 -0 -1 -0 -0 -0 -0 -0 -0 -0 -0 -0 -0 -0 -0 -0 -0 -0 -0
-0 -0 -0 -0 -1 -1 -0 -2 -5 -27 -0 -0 -0 -0 -0 -44 -16 -11 -8 -9 -0 -2 -9 -1 -7 -0 -0 -9 -4 -1 -0 -0 -0 -0 -0 -0 -0 -0 -0 -0 -0 -0 -0 -0 -0
-0 -0 -0 -0 -0 -0 -1 -3 -4 -4 -4 -12 -50 -65 -2 -12 -12 -79 -0 -16 -9 -3 -0 -4 -1 -1 -10 -0 -3 -1 -1 -0 -6 -0 -0 -0 -0 -0 -0 -0 -0 -0 -0 -0 -0
-0 -0 -0 -0 -0 -1 -1 -1 -2 -1 -0 -6 -16 -41 -3 -18 -11 -8 -11 -0 -12 -11 -4 -3 -5 -9 -0 -9 -12 -9 -0 -0 -11 -3 -2 -0 -0 -0 -0 -0 -0 -0 -0 -0 -0
-0 -0 -0 -0 -6 -4 -2 -1 -2 -1 -18 -5 -3 -15 -8 -8 -9 -2 -3 -1 -0 -0 -2 -1 -0 -0 -11 -2 -16 -12 -3 -0 -3 -2 -0 -0 -0 -0 -0 -0 -0 -0 -0 -0 -0
-0 -5 -9 -4 -2 -3 -2 -0 -0 -19 -2 -6 -15 -6 -0 -5 -11 -19 -0 -1 -7 -33 -24 -16 -1 -0 -0 -0 -0 -2 -14 -8 -0 -0 -0 -0 -0 -0 -0 -0 -0 -0 -0 -0 -0
-1 -5 -5 -12 -1 -5 -1 -0 -1 -4 -1 -0 -0 -3 -4 -4 -14 -4 -12 -2 -8 -29 -2 -14 -10 -0 -0 -0 -0 -23 -4 -0 -0 -0 -0 -0 -0 -0 -0 -0 -0 -0 -0 -0 -0
-0 -1 -7 -2 -1 -3 -1 -0 -4 -10 -2 -11 -0 -1 -1 -2 -6 -3 -4 -33 -0 -12 -31 -0 -6 -0 -0 -0 -0 -23 -0 -0 -0 -0 -0 -0 -0 -0 -0 -0 -0 -0 -0 -0 -0
-5 -2 -0 -4 -9 -0 -0 -1 -5 -0 -0 -6 -0 -0 -0 -0 -2 -3 -6 -21 -19 -13 -20 -4 -0 -0 -0 -0 -0 -0 -0 -0 -0 -0 -0 -0 -0 -0 -0 -0 -0 -0 -0 -0 -0
-1 -0 -1 -2 -0 -3 -0 -1 -2 -4 -0 -1 -2 -1 -0 -0 -0 -5 -21 -9 -25 -15 -7 -8 -12 -0 -0 -0 -0 -0 -0 -0 -0 -0 -0 -0 -0 -0 -0 -0 -0 -0 -0 -0 -0
-1 -0 -3 -8 -0 -1 -8 -1 -2 -1 -2 -6 -0 -3 -2 -0 -6 -11 -6 -56 -47 -28 -8 -29 -20 -2 -0 -0 -0 -0 -0 -0 -0 -0 -0 -0 -0 -0 -0 -0 -0 -0 -0 -0 -0
-7 -0 -3 -0 -0 -1 -0 -0 -0 -0 -0 -4 -0 -0 -4 -1 -5 -5 -27 -56 -0 -23 -32 -19 -0 -0 -0 -0 -0 -0 -0 -0 -0 -0 -0 -0 -0 -0 -0 -0 -0 -0 -0 -0 -0
-4 -1 -0 -0 -4 -2 -0 -0 -0 -5 -8 -5 -4 -0 -1 -3 -0 -13 -2 -23 -21 -2 -0 -0 -5 -0 -0 -0 -0 -0 -0 -0 -0 -0 -0 -0 -0 -0 -0 -0 -0 -0 -0 -0 -0
-1 -0 -0 -2 -0 -5 -0 -2 -0 -0 -1 -0 -8 -2 -1 -1 -0 -0 -13 -24 -18 -12 -0 -0 -13 -25 -0 -0 -0 -0 -0 -0 -0 -0 -0 -0 -0 -0 -0 -0 -0 -0 -0 -0 -0
-6 -6 -0 -9 -2 -2 -3 -2 -0 -0 -0 -6 -1 -3 -7 -2 -4 -2 -2 -11 -5 -27 -0 -0 -19 -0 -0 -40 -10 -1 -0 -0 -0 -0 -0 -0 -0 -0 -0 -0 -0 -0 -0 -0 -0
Wind_Speed
15 15 16 15 16 17 18 19 18 18 17 14 13 13 13 12 14 15 19 15 7 12 7 11 13 12 11 6 9 6 6 8 14 12 12 6 5 3 6 7 6 6 5 19 19
19 19 19 17 17 15 16 17 18 18 19 17 15 13 13 13 13 20 19 20 20 10 12 15 16 14 11 13 7 8 6 12 7 6 4 4 4 8 1 8 5 8 9 20 17
19 20 19 19 18 19 18 17 17 18 19 19 18 15 12 13 13 3 8 7 14 13 16 17 14 14 13 11 13 9 9 14 5 2 6 5 5 6 5 7 8 12 16 18 15
21 19 19 18 18 18 19 19 20 18 18 18 18 17 11 9 8 6 7 3 12 12 17 18 17 17 12 13 14 9 17 18 14 3 2 3 2 4 8 1 6 19 21 17 16
19 20 20 20 19 19 19 19 21 19 19 17 17 17 10 12 15 20 2 5 12 15 19 17 15 15 14 14 12 21 14 12 16 4 2 6 8 6 8 5 4 22 21 18 15
20 19 19 20 20 20 21 21 21 21 18 18 16 16 11 22 11 10 3 9 13 17 17 15 8 15 12 19 18 5 18 18 9 7 6 7 7 7 6 4 6 18 18 16 16
20 21 19 19 19 20 20 21 20 20 20 19 18 11 19 20 14 1 8 12 15 16 14 15 18 9 15 11 12 16 8 9 14 9 8 9 11 14 11 9 9 12 12 14 14
20 20 20 19 20 21 21 20 21 21 21 20 19 14 21 13 16 25 15 10 10 10 14 10 10 2 6 7 6 14 8 12 13 17 8 9 5 17 12 7 10 10 10 13 15
20 21 20 21 21 21 22 23 24 26 24 20 17 17 20 13 26 20 20 18 11 10 8 8 10 4 5 5 6 11 9 18 13 20 12 13 3 16 14 12 12 11 11 12 13
21 22 21 21 21 22 22 25 26 28 16 15 14 13 15 15 17 22 19 18 14 11 7 8 4 5 6 9 11 10 14 13 18 11 20 15 12 10 4 11 15 11 11 14 13
22 21 22 22 22 22 17 11 9 7 8 10 9 13 19 10 13 15 15 18 19 13 11 15 11 16 17 14 13 13 13 17 15 18 16 19 12 16 11 7 7 15 9 14 16
22 22 22 22 22 21 12 8 11 8 9 17 21 20 19 18 12 15 14 19 21 19 16 11 19 14 14 17 17 19 13 9 10 7 6 7 13 15 15 13 10 9 11 11 17
21 21 21 21 20 13 11 11 6 8 6 20 22 20 23 20 23 17 19 21 21 20 23 16 10 16 18 15 17 17 13 11 6 7 2 3 9 16 15 18 17 16 12 12 19
20 20 20 19 11 8 10 5 4 2 4 11 6 7 19 17 18 16 10 21 13 21 19 17 18 23 16 20 16 16 13 14 8 3 4 10 6 9 24 22 18 19 16 14 15
20 20 20 15 9 7 10 7 1 2 5 4 4 15 10 19 8 15 11 11 20 12 16 12 17 17 21 18 18 12 11 13 8 5 6 9 3 7 6 14 20 18 20 17 12
20 20 20 9 5 6 6 6 2 3 7 5 4 5 8 19 16 6 15 10 6 12 19 12 4 16 12 11 11 9 4 6 0 1 9 13 10 7 8 10 18 19 17 19 15
19 20 16 8 5 6 5 3 3 4 10 7 9 12 13 12 18 18 17 14 6 8 10 14 4 5 13 9 6 5 9 3 4 5 7 4 11 14 3 5 3 17 20 19 17
15 20 8 6 6 2 2 2 4 7 11 15 15 15 10 9 9 14 15 15 14 11 8 9 6 12 10 16 8 18 11 5 6 5 5 3 7 7 19 9 6 5 10 18 18
16 5 4 2 6 2 2 2 4 8 9 11 17 11 7 3 4 13 18 7 14 16 6 10 8 13 10 13 7 11 9 2 4 6 2 6 6 5 4 3 3 8 3 11 17
5 5 2 6 4 2 1 5 4 10 11 5 5 8 8 8 3 4 7 5 6 16 12 2 7 16 13 4 6 8 8 6 2 1 4 6 5 6 8 8 7 8 7 4 10
4 3 4 6 1 1 2 4 10 11 10 2 5 7 5 6 7 3 3 7 18 18 17 9 3 1 3 7 11 4 7 5 5 4 1 2 3 4 6 3 10 7 7 7 9
3 3 4 4 2 1 4 7 14 15 11 8 7 8 9 8 2 3 4 4 12 8 20 11 6 3 8 5 1 8 7 12 6 5 3 4 6 4 5 4 3 9 8 5 9
3 3 3 3 2 3 8 12 13 11 9 5 6 2 8 8 5 3 4 5 6 5 11 10 2 4 8 1 3 1 6 4 2 3 6 5 5 3 2 2 6 10 8 4 8
1 3 2 3 1 3 7 7 8 9 12 8 9 9 5 6 6 4 4 2 5 6 10 9 3 5 6 7 8 4 4 7 6 8 3 6 9 5 5 5 7 8 7 6 6
2 2 3 3 1 8 8 3 10 7 7 6 4 7 9 2 4 3 2 2 1 7 4 4 4 3 5 0 5 4 6 6 9 9 13 12 14 3 9 9 7 8 8 7 7
3 3 2 5 7 6 4 3 10 12 5 5 4 8 10 4 3 4 2 1 3 5 2 5 2 5 5 8 6 6 8 12 16 8 11 9 18 7 2 8 8 9 9 8 7
1 2 2 6 3 3 2 6 8 11 2 9 12 7 6 8 6 4 6 6 1 3 3 4 2 2 4 7 8 8 16 13 15 17 16 16 14 15 2 7 8 10 10 9 9
Wind_Direction
331 333 333 334 338 330 325 322 326 330 330 303 303 307 307 313 301 273 253 235 247 220 215 193 219 218 197 216 227 240 232 236 231 247 259 64 112 43 338 105 100 56 355 139 137
342 344 344 332 324 321 326 328 318 322 324 325 303 306 309 313 295 276 258 246 222 211 204 220 202 196 199 207 203 207 219 228 236 273 227 139 168 142 137 140 104 79 99 123 143
334 334 329 326 331 337 328 318 322 319 314 319 321 300 305 313 294 229 4 290 198 190 213 216 210 195 210 205 210 218 228 235 248 337 357 340 202 143 178 193 168 146 138 142 152
335 334 333 329 327 327 320 323 322 313 312 307 315 312 297 292 262 110 44 297 184 193 204 224 205 202 212 213 205 255 212 253 279 88 57 287 284 237 172 231 165 156 150 152 163
326 323 324 325 327 326 322 317 313 309 306 309 307 314 290 244 242 279 67 211 181 197 216 212 221 208 215 210 221 216 245 234 236 146 227 278 274 236 208 139 52 137 148 160 170
327 330 331 328 326 323 320 314 311 308 301 299 303 305 279 255 275 278 281 177 201 200 215 215 220 214 218 245 209 206 219 244 253 178 196 234 260 247 249 173 137 146 156 166 177
330 327 330 327 323 322 320 317 311 304 301 292 291 290 269 249 278 282 265 215 211 206 212 231 218 222 233 260 259 224 226 240 238 226 235 163 241 248 234 202 161 158 166 170 181
328 329 323 322 319 319 316 311 307 301 291 279 274 271 262 252 239 260 264 245 213 228 233 250 293 6 238 301 288 232 206 228 211 221 203 144 240 214 217 214 173 186 175 177 183
323 325 324 320 318 316 315 310 303 288 276 269 264 249 265 232 220 239 222 232 218 218 229 213 250 157 247 237 256 223 217 225 241 206 204 186 217 235 207 204 187 190 186 180 180
327 325 321 317 316 313 314 309 293 279 267 248 237 258 261 251 235 214 225 216 216 204 206 204 190 166 228 200 204 216 212 246 218 211 200 207 219 286 221 195 192 200 191 176 179
330 327 324 317 313 311 318 314 305 315 201 261 312 244 287 268 254 209 201 210 205 195 194 187 180 201 204 222 228 245 223 216 253 206 186 218 214 225 245 220 243 194 203 180 179
330 326 323 320 316 308 299 265 286 340 292 272 265 256 256 280 277 239 202 192 204 202 193 171 211 195 217 205 226 248 270 281 230 121 145 220 240 240 218 209 206 207 208 202 174
331 328 326 324 315 296 270 295 29 46 285 281 250 241 235 232 249 246 216 196 204 204 197 201 190 197 201 214 216 237 242 255 282 119 202 309 271 252 231 219 199 201 207 223 174
329 329 326 332 297 336 306 18 49 76 274 270 213 254 222 218 243 210 299 188 199 204 207 216 220 190 199 210 216 229 217 244 249 127 234 154 272 240 224 216 211 193 198 207 178
326 326 326 327 296 298 329 330 39 274 288 33 350 298 198 203 168 206 234 289 200 201 202 194 205 210 204 206 210 231 229 214 228 214 305 229 266 261 267 206 206 204 190 195 194
323 321 324 308 297 321 317 330 321 251 251 312 324 248 239 202 225 224 161 202 253 206 202 214 302 208 207 209 209 184 111 283 122 187 259 239 240 258 242 186 202 201 198 190 186
319 314 317 288 295 343 343 336 279 238 323 348 346 342 314 228 216 230 211 193 143 160 199 189 230 217 175 180 162 193 158 126 170 190 223 176 214 250 238 57 184 188 194 189 182
316 308 278 334 340 332 346 6 251 300 316 348 346 313 276 319 227 224 240 212 206 227 162 188 182 231 196 179 178 178 173 163 183 189 198 173 235 228 242 253 156 64 186 178 179
311 294 347 13 344 57 77 273 280 347 341 330 329 283 259 346 247 224 221 220 206 205 198 178 203 179 172 157 165 185 207 153 355 267 66 195 243 326 211 115 130 143 100 168 172
303 298 35 355 7 92 304 280 298 330 334 324 306 331 344 336 186 230 203 212 224 231 222 209 179 172 170 140 230 193 170 208 30 224 229 206 208 224 204 188 170 154 178 195 155
270 334 30 349 11 65 276 282 316 334 325 315 317 312 344 0 307 206 213 254 198 196 229 174 334 160 126 204 172 135 193 233 143 176 215 336 242 323 26 55 169 169 174 212 160
327 327 17 322 298 144 271 297 306 319 315 275 263 286 286 318 284 159 256 351 9 319 207 201 136 139 205 234 241 206 194 196 140 251 220 171 280 32 39 14 64 152 175 178 140
18 310 288 321 345 317 306 319 308 327 306 294 299 300 322 324 320 225 312 349 338 334 205 155 199 135 153 32 51 221 228 168 201 44 227 152 254 68 55 37 71 100 108 103 122
56 339 310 34 152 290 329 315 327 319 301 288 277 306 297 322 331 291 218 296 344 22 318 129 136 165 175 184 139 157 217 236 169 215 233 239 261 173 139 110 101 102 116 123 122
354 8 337 313 343 324 312 267 303 336 315 312 300 273 298 261 302 265 170 32 252 92 347 100 143 180 282 140 112 147 190 202 203 202 207 247 262 305 158 157 146 133 127 135 146
10 339 327 288 308 303 312 336 321 338 300 288 210 311 331 297 305 313 29 172 209 61 52 353 140 188 231 247 244 199 216 210 225 214 245 237 248 244 80 120 129 144 143 154 155
267 287 273 273 278 294 15 310 323 327 317 339 332 311 302 346 310 315 308 348 33 123 112 115 97 70 247 224 222 246 222 223 218 217 209 223 238 277 135 143 166 152 155 165 165